Location: Aulus
(42.7909°N, 1.3399°E)
Time: 15:01:14
(UTC+00:00)

ARIANE 5 R/B - Pass Details

Date: 19 May 2025
Orbit: 614 x 648 km, 98.0° (Epoch: 16 June)

Event Time Altitude Azimuth Distance (km) Brightness Sun altitude
Exits shadow 23:01:18 66° 331° (NNW) 677 2.8 -26.2°
Drops below altitude 10° 23:05:04 10° 346° (NNW) 1,997 6.2 -26.3°
Sets 23:07:16 0° 347° (NNW) 2,913 7.4 -26.4°
